Weather in Üçaji

Turkmenistan     38°05′23″N   62°48′12″E
temp.,
°C
wind,
m/s
gust,
m/s
humid.,
%
clouds,
%
prec.,
mm/h
press.,
hPa
HPBL,
m
5 december, sun
sun523:00+7w2371100 0.0 1025374
02:00+6w2376100 0.0 1024406
05:00+7se0175100 0.0 1024337
08:00+6ese228187 0.0 102495
11:00+9se346521 0.0 1024700
14:00+12se33510 0.0 1021956
17:00+12ese34480 0.0 102063
20:00+9e56580 0.0 102161
6 december, mon
mon623:00+8ese59640 0.0 1020115
02:00+8ese57688 0.0 101873
05:00+8se57635 0.0 101874
08:00+8se61058100 0.0 1018108
11:00+15se81139100 0.0 1017391
14:00+20sse7919100 0.0 10151471
17:00+17ese4421100 0.0 101534
20:00+14ese5838100 0.0 1017106
7 december, tue
tue723:00+13e2334100 0.0 101815
02:00+12nw574368 0.0 1020102
05:00+9nw575099 0.0 102297
08:00+8nw465395 0.0 102580
11:00+13nw78395 0.0 1026484
14:00+15wnw78380 0.0 1025905
17:00+13wnw58470 0.0 1026188
20:00+10wnw44640 0.0 102843
8 december, wed
wed823:00+8wnw33720 0.0 102818
02:00+7w22790 0.0 102810
05:00+5nnw11810 0.0 102810
08:00+5e22790 0.0 102810
11:00+11se33570 0.0 1029338
14:00+15ese33410 0.0 1026736
17:00+14e45420 0.0 102569
20:00+11e56490 0.0 102657
9 december, thu
thu923:00+9e58510 0.0 102678
02:00+8ese610530 0.0 1024122
05:00+8ese612540 0.0 1024149
08:00+9ese819510 0.0 1024295
11:00+15ese1219320 0.0 1022685
14:00+20se12152045 0.0 1019897
17:00+18se11172299 0.0 1018427
20:00+16se10202892 0.0 1018431